Nantucket, Massachusetts, United States (02554)
Lat: 41.28N, Lon: 70.1W
Wx Zone: MAZ024
Local Info
Past Weather Observations for Today

NOTE: This archive is for the closest National Weather Service station to Nantucket. Information may differ from the station used for current weather conditions.

Click here for Long-term Archive

Time Weather Temperature Dewpoint Humidity Pressure Winds Precip Visibility
15:53
Clear
52°F / 11°C 45°F / 7°C 77% 29.62 in
(1003 mb)
SW 11.5 mph
(SW 19 kph)
- 10SM
14:53
Clear
55°F / 13°C 46°F / 8°C 72% 29.62 in
(1003 mb)
SSW 15 mph
(SSW 24 kph)
- 10SM
13:53
Partly Cloudy
52°F / 11°C 46°F / 8°C 82% 29.62 in
(1003 mb)
SW 13.8 mph
(SW 22 kph)
- 10SM
13:27
Mostly Cloudy
Fog And Mist
52°F / 11°C 46°F / 8°C 82% 29.62 in
(1003 mb)
SW 16.1 mph
(SW 26 kph)
- 6SM
12:53
Obscured
Fog
52°F / 11°C 46°F / 8°C 82% 29.62 in
(1003 mb)
SW 18.4 mph
(SW 30 kph)
- 1/2SM
12:41
Obscured
Fog
52°F / 11°C 46°F / 8°C 82% 29.62 in
(1003 mb)
SW 19.6 mph
(SW 32 kph)
- 1/4SM
12:34
Overcast
Fog
52°F / 11°C 48°F / 9°C 88% 29.62 in
(1003 mb)
SW 17.3 mph
(SW 28 kph)
- 1/4SM
12:05
Overcast
Fog And Mist
54°F / 12°C 48°F / 9°C 82% 29.62 in
(1003 mb)
SW 15 mph
(SW 24 kph)
- 2SM
11:53
Overcast
Hazy
54°F / 12°C 48°F / 9°C 82% 29.62 in
(1003 mb)
SW 17.3 mph
(SW 28 kph)
- 4SM
11:29
Overcast
Fog And Mist
54°F / 12°C 48°F / 9°C 82% 29.62 in
(1003 mb)
SW 13.8 mph
(SW 22 kph)
- 3SM
11:08
Mostly Cloudy
Hazy
54°F / 12°C 48°F / 9°C 82% 29.62 in
(1003 mb)
SW 13.8 mph
(SW 22 kph)
- 3SM
10:53
Mostly Cloudy
Hazy
55°F / 13°C 50°F / 10°C 82% 29.62 in
(1003 mb)
SW 13.8 mph
(SW 22 kph)
- 6SM
10:07
Partly Cloudy
Fog And Mist
55°F / 13°C 52°F / 11°C 88% 29.59 in
(1002 mb)
SSE 17.3 mph
(SSE 28 kph)
- 6SM
09:53
Overcast
Fog And Mist
54°F / 12°C 50°F / 10°C 88% 29.59 in
(1002 mb)
S 17.3 mph
(S 28 kph)
- 5SM
09:36
Overcast
Fog And Mist
54°F / 12°C 50°F / 10°C 88% 29.59 in
(1002 mb)
S 18.4 mph
(S 30 kph)
- 1 1/2SM
08:53
Overcast
Fog
52°F / 11°C 52°F / 11°C 100% 29.59 in
(1002 mb)
S 11.5 mph
(S 19 kph)
- 1/2SM
08:01
Obscured
Fog
54°F / 12°C 54°F / 12°C 100% 29.59 in
(1002 mb)
S 11.5 mph
(S 19 kph)
- 1/2SM
07:53
Overcast
Fog And Mist
54°F / 12°C 52°F / 11°C 94% 29.59 in
(1002 mb)
S 9.2 mph
(S 15 kph)
0.00 in
(0.00 mm)
1 1/4SM
07:32
Overcast
Fog And Mist
52°F / 11°C 52°F / 11°C 100% 29.59 in
(1002 mb)
S 11.5 mph
(S 19 kph)
0.00 in
(0.00 mm)
1 1/4SM
07:17
Overcast
Light Rain
52°F / 11°C 50°F / 10°C 94% 29.62 in
(1003 mb)
S 12.7 mph
(S 20 kph)
0.00 in
(0.00 mm)
1/2SM
06:58
Obscured
Light Rain
52°F / 11°C 50°F / 10°C 94% 29.62 in
(1003 mb)
S 11.5 mph
(S 19 kph)
0.00 in
(0.00 mm)
1/4SM
06:53
Obscured
Light Rain
52°F / 11°C 50°F / 10°C 94% 29.62 in
(1003 mb)
S 12.7 mph
(S 20 kph)
0.00 in
(0.00 mm)
1/2SM
06:44
Obscured
Light Rain
52°F / 11°C 50°F / 10°C 94% 29.62 in
(1003 mb)
S 12.7 mph
(S 20 kph)
0.00 in
(0.00 mm)
1/2SM
05:53
Obscured
Light Rain
52°F / 11°C 52°F / 11°C 100% 29.62 in
(1003 mb)
S 12.7 mph
(S 20 kph)
0.01 in
(0.25 mm)
1/4SM
04:57
Obscured
Light Rain
52°F / 11°C 52°F / 11°C 100% 29.62 in
(1003 mb)
SSE 12.7 mph
(SSE 20 kph)
0.00 in
(0.00 mm)
1/4SM
04:53
Obscured
Thunder Storms
52°F / 11°C 52°F / 11°C 100% 29.62 in
(1003 mb)
SSE 12.7 mph
(SSE 20 kph)
0.04 in
(1.02 mm)
1/2SM
04:48
Obscured
Thunder Storms
52°F / 11°C 52°F / 11°C 100% 29.62 in
(1003 mb)
SSE 13.8 mph
(SSE 22 kph)
0.04 in
(1.02 mm)
1/2SM
04:35
Obscured
Thunder Storms
52°F / 11°C 50°F / 10°C 94% 29.62 in
(1003 mb)
SSE 12.7 mph
(SSE 20 kph)
0.00 in
(0.00 mm)
1/2SM
04:17
Obscured
Light Rain
52°F / 11°C 50°F / 10°C 94% 29.62 in
(1003 mb)
SSE 13.8 mph
(SSE 22 kph)
0.00 in
(0.00 mm)
1/4SM
04:06
Obscured
Light Rain
52°F / 11°C 50°F / 10°C 94% 29.62 in
(1003 mb)
SSE 13.8 mph
(SSE 22 kph)
0.00 in
(0.00 mm)
1/2SM
03:53
Obscured
Light Rain
52°F / 11°C 50°F / 10°C 94% 29.62 in
(1003 mb)
SSE 13.8 mph
(SSE 22 kph)
0.00 in
(0.00 mm)
1/4SM
02:53
Obscured
Light Rain
50°F / 10°C 48°F / 9°C 94% 29.65 in
(1004 mb)
SE 16.1 mph
(SE 26 kph)
0.00 in
(0.00 mm)
1/4SM
02:34
Obscured
Light Rain
52°F / 11°C 50°F / 10°C 94% 29.65 in
(1004 mb)
SE 15 mph
(SE 24 kph)
0.00 in
(0.00 mm)
1/4SM
02:20
Obscured
Light Rain
52°F / 11°C 52°F / 11°C 100% 29.65 in
(1004 mb)
SE 15 mph
(SE 24 kph)
0.00 in
(0.00 mm)
1/2SM
02:09
Obscured
Light Rain
52°F / 11°C 50°F / 10°C 94% 29.65 in
(1004 mb)
SE 15 mph
(SE 24 kph)
0.00 in
(0.00 mm)
1/4SM
01:53
Obscured
Light Rain
52°F / 11°C 50°F / 10°C 94% 29.65 in
(1004 mb)
SE 19.6 mph
(SE 32 kph)
0.00 in
(0.00 mm)
1/2SM
01:41
Obscured
Light Rain
50°F / 10°C 50°F / 10°C 100% 29.65 in
(1004 mb)
SSE 12.7 mph
(SSE 20 kph)
0.00 in
(0.00 mm)
1/2SM
00:53
Obscured
Light Rain
52°F / 11°C 50°F / 10°C 94% 29.71 in
(1006 mb)
SE 19.6 mph
(SE 32 kph)
0.00 in
(0.00 mm)
1/2SM
00:20
Obscured
Fog And Mist
52°F / 11°C 50°F / 10°C 94% 29.71 in
(1006 mb)
SE 19.6 mph
(SE 32 kph)
0.00 in
(0.00 mm)
3/4SM
00:02
Overcast
Light Rain
54°F / 12°C 52°F / 11°C 94% 29.71 in
(1006 mb)
SE 19.6 mph
(SE 32 kph)
0.00 in
(0.00 mm)
1 3/4SM
Time Weather Temperature Dewpoint Humidity Pressure Winds Precip Visibility


Weather for websites

WeatherForYou.com, LLC is not responsible for any damages or problems caused by this service. Current weather conditions are obtained from the closest station including government and personal stations which may have varying degrees of accuracy. Weather forecasts are derived from the NOAA NDFD. Like all things, this site belongs to Jesus Christ... He just trusts me to maintain it. If you have any questions or comments email webmaster@weatherforyou.com

Copyright © 2015, WeatherForYou.com LLC. All rights reserved.